{"data":{"norad_id":32060,"epoch":"2026-05-25T04:23:47.649696Z","epoch_age_seconds":55847,"freshness":"FRESH","line1":"1 32060U 07041A   26145.18319039  .00005782  00000+0  23714-3 0  9996","line2":"2 32060  97.3923 265.2614 0003957 121.4685 238.6940 15.24627006 39370","mean_motion":15.24627006,"eccentricity":0.0003957,"inclination_deg":97.3923,"raan_deg":265.2614,"arg_perigee_deg":121.4685,"mean_anomaly_deg":238.694,"bstar":0.00023714,"rev_number":3937,"period_min":94.449330513827,"perigee_km":489.18721542801,"apogee_km":494.62416721393,"semimajor_km":6870.042691321,"source":"CELESTRAK","updated_at":"2026-05-25T13:38:12.744902Z"}}